Project,Study,Ord_Occ,Event_Num,Cast_ID,Date_Time_UTC,Date_Time_PST,Lat_Dec,Lon_Dec,Sta_ID,Line,Sta,Depth,Pressure,PrQ,Temp1,Temp1Q,Temp2,Temp2Q,TempAve,Salt1,Salt1Q,Salt1_Corr,Salt2,Salt2Q,Salt2_Corr,SaltAve_Corr,Ox1,Ox1Q,Ox1_CruiseCorr,Ox1_StaCorr,Ox2,Ox2Q,Ox2_CruiseCorr,Ox2_StaCorr,OxAve_StaCorr,Ox1uM,Ox1uM_CruiseCorr,Ox1uM_StaCorr,Ox2uM,Ox2uM_CruiseCorr,Ox2uM_StaCorr,OxAveuM_StaCorr,FluorV,FluorQ,EstChl_CruiseCorr,EstChl_StaCorr,ISUSV,ISUSQ,EstNO3_CruiseCorr,EstNO3_StaCorr,SigThetaTS1,SigThetaTS1Q,SigThetaTS2,SigThetaTS2Q,BAT,XMiss,TransQ,pH,pHQ,SPAR,SPARQ,PAR,PARQ,PoT1,PoT2,DynHt,SVA,OxSat1,OxSat2,BTL_Depth,BTL_Temp,SaltB,OxB,OxBuM,Chl-a,Phaeo,NO3,NO2,NH4,PO4,SIL
CalCOFI,2007SR,051,53,2007_051d,23-Jul-2020 01:08:38,22-Jul-2020 17:08:38,33.24549,-121.44238,083.3 070.0,083.3,070.0,2.000,2.014,,17.6164,,17.6167,,17.6166,33.1403,,33.1405,33.1412,,33.1428,33.1417,5.4004,,5.6252,5.6072,4.0626,,5.7574,4.2228,4.9150,235.544,245.3963,244.2866,177.193,410.5622,182.3653,213.3260,0.0363,,0.0023,0.0499,-99.0,,-99.0,-99.0,23.9411,,23.9417,,0.6953,84.0435,,8.122,,6.4236E+02,,1.1943E+01,,17.6161,17.6163,0.0019,,98.707,74.255,2,17.560,33.1417,5.632,245.90,0.098,0.028,0.0,0.00,0.00,0.29,0.75
CalCOFI,2007SR,051,53,2007_051d,23-Jul-2020 01:08:44,22-Jul-2020 17:08:44,33.24548,-121.44238,083.3 070.0,083.3,070.0,3.000,3.021,,17.6099,,17.6090,,17.6095,33.1405,,33.1407,33.1415,,33.1431,33.1419,5.4026,,5.6275,5.6095,4.0715,,5.7787,4.2426,4.9261,235.637,245.4934,244.3840,177.582,410.7897,183.2663,213.8252,0.0368,,0.0082,0.0522,-99.0,,-99.0,-99.0,23.9428,,23.9438,,0.6956,84.0372,,8.123,,6.3033E+02,,1.0477E+01,,17.6094,17.6085,0.0067,,98.734,74.407,,,,,,,,,,,,
CalCOFI,2007SR,051,53,2007_051d,23-Jul-2020 01:08:45,22-Jul-2020 17:08:45,33.24549,-121.44237,083.3 070.0,083.3,070.0,4.000,4.029,,17.6177,,17.6183,,17.6180,33.1404,,33.1406,33.1413,,33.1429,33.1418,5.4031,,5.6280,5.6101,4.0739,,5.7844,4.2479,4.9290,235.662,245.5195,244.4102,177.685,410.8508,183.5048,213.9575,0.0363,,0.0023,0.0499,-99.0,,-99.0,-99.0,23.9410,,23.9415,,0.6959,84.0313,,8.123,,6.0840E+02,,9.1563E+00,,17.6170,17.6176,0.0107,,98.758,74.463,,,,,,,,,,,,
CalCOFI,2007SR,051,53,2007_051d,23-Jul-2020 01:08:47,22-Jul-2020 17:08:47,33.24550,-121.44236,083.3 070.0,083.3,070.0,5.000,5.036,,17.6186,,17.6186,,17.6186,33.1404,,33.1406,33.1414,,33.1430,33.1418,5.4034,,5.6283,5.6104,4.0762,,5.7899,4.2531,4.9318,235.672,245.5299,244.4207,177.787,410.8753,183.7411,214.0809,0.0366,,0.0059,0.0513,-99.0,,-99.0,-99.0,23.9408,,23.9415,,0.6952,84.0469,,8.123,,5.9116E+02,,8.1882E+00,,17.6177,17.6178,0.0147,,98.764,74.506,,,,,,,,,,,,
CalCOFI,2007SR,051,53,2007_051d,23-Jul-2020 01:08:51,22-Jul-2020 17:08:51,33.24548,-121.44238,083.3 070.0,083.3,070.0,6.000,6.043,,17.6136,,17.6131,,17.6134,33.1402,,33.1404,33.1413,,33.1429,33.1417,5.3920,,5.6164,5.5984,4.0820,,5.8038,4.2660,4.9322,235.176,245.0121,243.9009,178.041,409.6621,184.3293,214.1151,0.0370,,0.0105,0.0531,-99.0,,-99.0,-99.0,23.9418,,23.9428,,0.6947,84.0572,,8.123,,5.8903E+02,,7.3206E+00,,17.6126,17.6121,0.0187,,98.547,74.605,,,,,,,,,,,,
CalCOFI,2007SR,051,53,2007_051d,23-Jul-2020 01:08:53,22-Jul-2020 17:08:53,33.24548,-121.44238,083.3 070.0,083.3,070.0,7.000,7.050,,17.6083,,17.6078,,17.6081,33.1401,,33.1403,33.1412,,33.1428,33.1416,5.3898,,5.6141,5.5961,4.0842,,5.8090,4.2709,4.9335,235.080,244.9119,243.8003,178.136,409.4273,184.5494,214.1749,0.0374,,0.0152,0.0548,-99.0,,-99.0,-99.0,23.9431,,23.9440,,0.6954,84.0420,,8.123,,5.9969E+02,,6.7375E+00,,17.6071,17.6067,0.0227,,98.497,74.638,,,,,,,,,,,,
CalCOFI,2007SR,051,53,2007_051d,23-Jul-2020 01:08:54,22-Jul-2020 17:08:54,33.24550,-121.44237,083.3 070.0,083.3,070.0,8.000,8.057,,17.6057,,17.6057,,17.6057,33.1402,,33.1404,33.1413,,33.1429,33.1417,5.3892,,5.6135,5.5955,4.0892,,5.8209,4.2820,4.9388,235.054,244.8848,243.7731,178.355,409.3637,185.0566,214.4149,0.0363,,0.0023,0.0499,-99.0,,-99.0,-99.0,23.9438,,23.9446,,0.6961,84.0263,,8.123,,6.0340E+02,,6.4400E+00,,17.6044,17.6044,0.0267,,98.481,74.726,,,,,,,,,,,,
CalCOFI,2007SR,051,53,2007_051d,23-Jul-2020 01:08:56,22-Jul-2020 17:08:56,33.24550,-121.44236,083.3 070.0,083.3,070.0,9.000,9.064,,17.5956,,17.5863,,17.5910,33.1395,,33.1397,33.1395,,33.1411,33.1404,5.3894,,5.6137,5.5957,4.0929,,5.8298,4.2902,4.9430,235.061,244.8921,243.7804,178.514,409.3808,185.4249,214.6027,0.0361,,,0.0490,-99.0,,-99.0,-99.0,23.9457,,23.9480,,0.6972,84.0045,,8.123,,6.0054E+02,,5.7503E+00,,17.5941,17.5848,0.0306,,98.465,74.765,,,,,,,,,,,,
CalCOFI,2007SR,051,53,2007_051d,23-Jul-2020 01:08:57,22-Jul-2020 17:08:57,33.24550,-121.44236,083.3 070.0,083.3,070.0,10.000,10.071,,17.5694,,17.5426,,17.5560,33.1386,,33.1388,33.1398,,33.1414,33.1401,5.3914,,5.6158,5.5978,4.0991,,5.8446,4.3040,4.9509,235.146,244.9808,243.8695,178.781,409.5887,186.0433,214.9564,0.0360,,,0.0486,-99.0,,-99.0,-99.0,23.9514,,23.9588,,0.6953,84.0448,,8.124,,5.9756E+02,,5.5264E+00,,17.5678,17.5409,0.0346,,98.452,74.815,,,,,,,,,,,,
CalCOFI,2007SR,051,53,2007_051d,23-Jul-2020 01:09:01,22-Jul-2020 17:09:01,33.24549,-121.44236,083.3 070.0,083.3,070.0,11.000,11.079,,17.4864,,17.4851,,17.4858,33.1378,,33.1380,33.1394,,33.1410,33.1395,5.3875,,5.6117,5.5937,4.1093,,5.8689,4.3267,4.9602,234.975,244.8023,243.6903,179.224,409.1705,187.0693,215.3798,0.0370,,0.0105,0.0531,-99.0,,-99.0,-99.0,23.9707,,23.9722,,0.6946,84.0594,,8.124,,6.2440E+02,,5.2743E+00,,17.4846,17.4832,0.0386,,98.225,74.919,11,17.481,33.1410,5.588,244.00,0.095,0.022,0.0,0.00,0.05,0.29,0.75
CalCOFI,2007SR,051,53,2007_051d,23-Jul-2020 01:09:03,22-Jul-2020 17:09:03,33.24549,-121.44236,083.3 070.0,083.3,070.0,12.000,12.086,,17.4394,,17.4423,,17.4409,33.1388,,33.1390,33.1406,,33.1422,33.1406,5.3852,,5.6093,5.5913,4.1154,,5.8835,4.3403,4.9658,234.871,244.6937,243.5813,179.490,408.9161,187.6854,215.6334,0.0367,,0.0070,0.0517,-99.0,,-99.0,-99.0,23.9827,,23.9834,,0.6953,84.0446,,8.124,,6.3790E+02,,5.1045E+00,,17.4374,17.4403,0.0425,,98.095,74.970,,,,,,,,,,,,
CalCOFI,2007SR,051,53,2007_051d,23-Jul-2020 01:09:04,22-Jul-2020 17:09:04,33.24550,-121.44236,083.3 070.0,083.3,070.0,13.000,13.093,,17.4571,,17.4587,,17.4579,33.1391,,33.1393,33.1396,,33.1412,33.1403,5.3897,,5.6140,5.5960,4.1166,,5.8864,4.3430,4.9695,235.066,244.8973,243.7856,179.542,409.3931,187.8058,215.7957,0.0366,,0.0059,0.0513,-99.0,,-99.0,-99.0,23.9788,,23.9787,,0.6953,84.0447,,8.124,,6.4057E+02,,4.9149E+00,,17.4549,17.4565,0.0465,,98.209,75.014,,,,,,,,,,,,
CalCOFI,2007SR,051,53,2007_051d,23-Jul-2020 01:09:05,22-Jul-2020 17:09:05,33.24550,-121.44236,083.3 070.0,083.3,070.0,14.000,14.100,,17.4333,,17.4203,,17.4268,33.1366,,33.1368,33.1378,,33.1394,33.1381,5.3927,,5.6171,5.5991,4.1219,,5.8990,4.3548,4.9770,235.199,245.0361,243.9250,179.771,409.7184,188.3362,216.1306,0.0357,,,0.0473,-99.0,,-99.0,-99.0,23.9825,,23.9866,,0.6965,84.0196,,8.124,,6.3433E+02,,4.5331E+00,,17.4310,17.4180,0.0504,,98.219,75.054,,,,,,,,,,,,
CalCOFI,2007SR,051,53,2007_051d,23-Jul-2020 01:09:08,22-Jul-2020 17:09:08,33.24550,-121.44236,083.3 070.0,083.3,070.0,15.000,15.107,,17.3319,,17.3464,,17.3392,33.1380,,33.1382,33.1396,,33.1412,33.1397,5.3922,,5.6166,5.5986,4.1303,,5.9191,4.3735,4.9861,235.169,245.0048,243.8936,180.134,409.6450,189.1769,216.5353,0.0360,,,0.0486,-99.0,,-99.0,-99.0,24.0078,,24.0056,,0.6949,84.0518,,8.124,,6.4604E+02,,4.5815E+00,,17.3294,17.3439,0.0544,,98.019,75.102,,,,,,,,,,,,
CalCOFI,2007SR,051,53,2007_051d,23-Jul-2020 01:09:11,22-Jul-2020 17:09:11,33.24550,-121.44236,083.3 070.0,083.3,070.0,16.000,16.115,,17.2647,,17.2666,,17.2657,33.1379,,33.1381,33.1392,,33.1408,33.1395,5.4074,,5.6325,5.6146,4.1386,,5.9389,4.3919,5.0033,235.831,245.6959,244.5874,180.495,411.2641,190.0130,217.3002,0.0357,,,0.0473,-99.0,,-99.0,-99.0,24.0237,,24.0242,,0.6957,84.0361,,8.125,,6.7022E+02,,4.3354E+00,,17.2621,17.2639,0.0583,,98.169,75.138,,,,,,,,,,,,
CalCOFI,2007SR,051,53,2007_051d,23-Jul-2020 01:09:13,22-Jul-2020 17:09:13,33.24550,-121.44236,083.3 070.0,083.3,070.0,17.000,17.122,,17.2408,,17.2407,,17.2408,33.1369,,33.1371,33.1380,,33.1396,33.1384,5.4135,,5.6389,5.6210,4.1414,,5.9456,4.3982,5.0096,236.096,245.9725,244.8651,180.613,411.9123,190.2863,217.5757,0.0360,,,0.0486,-99.0,,-99.0,-99.0,24.0286,,24.0295,,0.6951,84.0483,,8.125,,6.6321E+02,,4.2557E+00,,17.2380,17.2378,0.0622,,98.234,75.150,,,,,,,,,,,,
CalCOFI,2007SR,051,53,2007_051d,23-Jul-2020 01:09:14,22-Jul-2020 17:09:14,33.24550,-121.44236,083.3 070.0,083.3,070.0,18.000,18.129,,17.2235,,17.2243,,17.2239,33.1363,,33.1365,33.1376,,33.1392,33.1379,5.4159,,5.6414,5.6235,4.1475,,5.9601,4.4117,5.0176,236.197,246.0779,244.9709,180.882,412.1593,190.9094,217.9402,0.0353,,,0.0455,-99.0,,-99.0,-99.0,24.0324,,24.0332,,0.6961,84.0269,,8.125,,6.6251E+02,,4.1526E+00,,17.2205,17.2214,0.0661,,98.244,75.238,,,,,,,,,,,,
CalCOFI,2007SR,051,53,2007_051d,23-Jul-2020 01:09:17,22-Jul-2020 17:09:17,33.24550,-121.44236,083.3 070.0,083.3,070.0,19.000,19.136,,17.2084,,17.2142,,17.2113,33.1357,,33.1359,33.1368,,33.1384,33.1372,5.4196,,5.6452,5.6274,4.1483,,5.9620,4.4135,5.0205,236.358,246.2460,245.1396,180.915,412.5531,190.9858,218.0627,0.0368,,0.0082,0.0522,-99.0,,-99.0,-99.0,24.0354,,24.0349,,0.6967,84.0149,,8.125,,6.8263E+02,,4.0627E+00,,17.2052,17.2111,0.0700,,98.282,75.237,,,,,,,,,,,,
CalCOFI,2007SR,051,53,2007_051d,23-Jul-2020 01:09:19,22-Jul-2020 17:09:19,33.24550,-121.44236,083.3 070.0,083.3,070.0,20.000,20.143,,17.1790,,17.1849,,17.1820,33.1337,,33.1339,33.1347,,33.1363,33.1351,5.4217,,5.6474,5.6296,4.1560,,5.9804,4.4307,5.0302,236.451,246.3431,245.2371,181.251,412.7806,191.7640,218.5006,0.0368,,0.0082,0.0522,-99.0,,-99.0,-99.0,24.0409,,24.0403,,0.6958,84.0333,,8.125,,6.9214E+02,,3.9565E+00,,17.1757,17.1816,0.0739,,98.264,75.333,,,,,,,,,,,,
CalCOFI,2007SR,051,53,2007_051d,23-Jul-2020 01:09:21,22-Jul-2020 17:09:21,33.24550,-121.44236,083.3 070.0,083.3,070.0,21.000,21.151,,17.1272,,17.1297,,17.1285,33.1298,,33.1300,33.1316,,33.1332,33.1316,5.4496,,5.6766,5.6589,4.1619,,5.9945,4.4438,5.0514,237.665,247.6104,246.5094,181.506,415.7499,192.3546,219.4320,0.0381,,0.0235,0.0579,-99.0,,-99.0,-99.0,24.0502,,24.0510,,0.6969,84.0098,,8.125,,6.9764E+02,,3.8725E+00,,17.1237,17.1262,0.0778,,98.669,75.358,,,,,,,,,,,,
CalCOFI,2007SR,051,53,2007_051d,23-Jul-2020 01:09:23,22-Jul-2020 17:09:23,33.24550,-121.44236,083.3 070.0,083.3,070.0,22.000,22.158,,17.0376,,17.0419,,17.0398,33.1256,,33.1258,33.1280,,33.1296,33.1277,5.4595,,5.6869,5.6692,4.1728,,6.0205,4.4681,5.0687,238.090,248.0541,246.9548,181.978,416.7893,193.4478,220.2013,0.0402,,0.0481,0.0672,-99.0,,-99.0,-99.0,24.0681,,24.0689,,0.6987,83.9730,,8.126,,7.2339E+02,,3.8244E+00,,17.0340,17.0383,0.0817,,98.674,75.426,,,,,,,,,,,,
CalCOFI,2007SR,051,53,2007_051d,23-Jul-2020 01:09:25,22-Jul-2020 17:09:25,33.24550,-121.44236,083.3 070.0,083.3,070.0,23.000,23.165,,16.9950,,17.0021,,16.9986,33.1260,,33.1262,33.1271,,33.1287,33.1275,5.4753,,5.7034,5.6858,4.1766,,6.0296,4.4765,5.0812,238.780,248.7743,247.6779,182.142,418.4770,193.8277,220.7528,0.0401,,0.0469,0.0668,-99.0,,-99.0,-99.0,24.0785,,24.0777,,0.7009,83.9272,,8.126,,7.4258E+02,,3.7205E+00,,16.9913,16.9983,0.0856,,98.880,75.437,,,,,,,,,,,,
CalCOFI,2007SR,051,53,2007_051d,23-Jul-2020 01:09:27,22-Jul-2020 17:09:27,33.24550,-121.44236,083.3 070.0,083.3,070.0,24.000,24.172,,16.9210,,16.9536,,16.9373,33.1242,,33.1244,33.1240,,33.1256,33.1250,5.4971,,5.7262,5.7087,4.1851,,6.0499,4.4954,5.1021,239.725,249.7608,248.6683,182.509,420.7883,194.6777,221.6730,0.0418,,0.0669,0.0742,-99.0,,-99.0,-99.0,24.0944,,24.0867,,0.7024,83.8946,,8.126,,7.4910E+02,,3.5538E+00,,16.9170,16.9497,0.0894,,99.130,75.517,,,,,,,,,,,,
CalCOFI,2007SR,051,53,2007_051d,23-Jul-2020 01:09:30,22-Jul-2020 17:09:30,33.24550,-121.44236,083.3 070.0,083.3,070.0,25.000,25.180,,16.8693,,16.8823,,16.8758,33.1219,,33.1221,33.1218,,33.1234,33.1228,5.5015,,5.7308,5.7133,4.1937,,6.0704,4.5146,5.1140,239.914,249.9581,248.8664,182.882,421.2506,195.5415,222.2040,0.0419,,0.0681,0.0747,-99.0,,-99.0,-99.0,24.1047,,24.1016,,0.7047,83.8466,,8.126,,7.6129E+02,,3.5363E+00,,16.8653,16.8783,0.0933,,99.109,75.568,,,,,,,,,,,,
CalCOFI,2007SR,051,53,2007_051d,23-Jul-2020 01:09:32,22-Jul-2020 17:09:32,33.24550,-121.44236,083.3 070.0,083.3,070.0,26.000,26.187,,16.8192,,16.8307,,16.8250,33.1191,,33.1193,33.1197,,33.1213,33.1203,5.5154,,5.7453,5.7279,4.2037,,6.0943,4.5368,5.1324,240.519,250.5897,249.5004,183.316,422.7303,196.5467,223.0236,0.0440,,0.0927,0.0838,-99.0,,-99.0,-99.0,24.1143,,24.1121,,0.7094,83.7491,,8.126,,7.9663E+02,,3.4698E+00,,16.8150,16.8265,0.0971,,99.262,75.671,26,16.793,33.1251,5.714,249.52,0.133,0.031,0.0,0.00,0.00,0.30,0.74
CalCOFI,2007SR,051,53,2007_051d,23-Jul-2020 01:09:33,22-Jul-2020 17:09:33,33.24550,-121.44236,083.3 070.0,083.3,070.0,27.000,27.194,,16.8041,,16.8017,,16.8029,33.1178,,33.1180,33.1188,,33.1204,33.1192,5.5446,,5.7759,5.7586,4.2093,,6.1077,4.5493,5.1540,241.789,251.9154,250.8314,183.562,425.8366,197.1165,223.9740,0.0462,,0.1186,0.0934,-99.0,,-99.0,-99.0,24.1169,,24.1182,,0.7100,83.7357,,8.127,,8.0687E+02,,3.3277E+00,,16.7997,16.7973,0.1009,,99.756,75.730,,,,,,,,,,,,
CalCOFI,2007SR,051,53,2007_051d,23-Jul-2020 01:09:34,22-Jul-2020 17:09:34,33.24550,-121.44236,083.3 070.0,083.3,070.0,28.000,28.201,,16.7530,,16.7589,,16.7560,33.1146,,33.1148,33.1164,,33.1180,33.1164,5.5441,,5.7753,5.7580,4.2166,,6.1251,4.5655,5.1618,241.769,251.8946,250.8104,183.876,425.7877,197.8438,224.3271,0.0473,,0.1315,0.0981,-99.0,,-99.0,-99.0,24.1264,,24.1264,,0.7100,83.7358,,8.127,,7.9996E+02,,3.1964E+00,,16.7485,16.7543,0.1047,,99.648,75.796,,,,,,,,,,,,
CalCOFI,2007SR,051,53,2007_051d,23-Jul-2020 01:09:37,22-Jul-2020 17:09:37,33.24549,-121.44236,083.3 070.0,083.3,070.0,29.000,29.208,,16.7137,,16.7054,,16.7096,33.1158,,33.1160,33.1186,,33.1202,33.1181,5.5332,,5.7639,5.7466,4.2275,,6.1511,4.5898,5.1682,241.288,251.3924,250.3063,184.348,424.6112,198.9370,224.6217,0.0500,,0.1632,0.1096,-99.0,,-99.0,-99.0,24.1364,,24.1405,,0.7109,83.7181,,8.128,,7.8568E+02,,3.1567E+00,,16.7090,16.7007,0.1085,,99.376,75.914,,,,,,,,,,,,
CalCOFI,2007SR,051,53,2007_051d,23-Jul-2020 01:09:40,22-Jul-2020 17:09:40,33.24548,-121.44236,083.3 070.0,083.3,070.0,30.000,30.216,,16.5067,,16.4942,,16.5005,33.0952,,33.0954,33.0920,,33.0936,33.0945,5.6803,,5.9176,5.9010,4.2679,,6.2476,4.6797,5.2904,247.697,258.0828,257.0230,186.105,440.2867,203.0063,230.0147,0.0567,,0.2419,0.1378,-99.0,,-99.0,-99.0,24.1685,,24.1688,,0.7184,83.5611,,8.130,,8.2617E+02,,3.0813E+00,,16.5018,16.4894,0.1123,,101.595,76.313,,,,,,,,,,,,
CalCOFI,2007SR,051,53,2007_051d,23-Jul-2020 01:09:42,22-Jul-2020 17:09:42,33.24549,-121.44236,083.3 070.0,083.3,070.0,31.000,31.223,,16.0631,,16.0527,,16.0579,33.0709,,33.0711,33.0688,,33.0704,33.0708,5.7647,,6.0058,5.9895,4.3027,,6.3306,4.7572,5.3734,251.355,261.9014,260.8566,187.609,449.2336,206.4897,233.6732,0.0715,,0.4159,0.1977,-99.0,,-99.0,-99.0,24.2509,,24.2517,,0.7284,83.3519,,8.134,,8.1943E+02,,2.9370E+00,,16.0582,16.0478,0.1161,,102.200,76.265,,,,,,,,,,,,
CalCOFI,2007SR,051,53,2007_051d,23-Jul-2020 01:09:43,22-Jul-2020 17:09:43,33.24550,-121.44236,083.3 070.0,083.3,070.0,32.000,32.230,,15.8301,,15.8259,,15.8280,33.0573,,33.0575,33.0575,,33.0591,33.0583,5.7955,,6.0380,6.0219,4.3244,,6.3824,4.8054,5.4137,252.688,263.2929,262.2536,188.548,452.4940,208.6645,235.4591,0.0897,,0.6301,0.2669,-99.0,,-99.0,-99.0,24.2930,,24.2941,,0.7423,83.0637,,8.135,,8.0339E+02,,2.8367E+00,,15.8252,15.8209,0.1197,,102.269,76.303,,,,,,,,,,,,
CalCOFI,2007SR,051,53,2007_051d,23-Jul-2020 01:09:44,22-Jul-2020 17:09:44,33.24550,-121.44236,083.3 070.0,083.3,070.0,33.000,33.238,,15.7357,,15.7542,,15.7450,33.0627,,33.0629,33.0623,,33.0639,33.0634,5.8098,,6.0530,6.0369,4.3373,,6.4132,4.8342,5.4356,253.304,263.9359,262.8992,189.107,454.0006,209.9592,236.4292,0.0925,,0.6630,0.2771,-99.0,,-99.0,-99.0,24.3183,,24.3139,,0.7511,82.8806,,8.135,,7.9829E+02,,2.7501E+00,,15.7306,15.7491,0.1234,,102.334,76.426,,,,,,,,,,,,
CalCOFI,2007SR,051,53,2007_051d,23-Jul-2020 01:09:47,22-Jul-2020 17:09:47,33.24549,-121.44236,083.3 070.0,083.3,070.0,34.000,34.245,,15.6539,,15.6773,,15.6656,33.0600,,33.0602,33.0592,,33.0608,33.0605,5.7933,,6.0357,6.0195,4.3568,,6.4598,4.8776,5.4486,252.581,263.1812,262.1414,189.955,452.2323,211.9233,237.0324,0.0927,,0.6654,0.2778,-99.0,,-99.0,-99.0,24.3344,,24.3286,,0.7547,82.8066,,8.136,,8.3063E+02,,2.6164E+00,,15.6486,15.6721,0.1270,,101.877,76.652,,,,,,,,,,,,
CalCOFI,2007SR,051,53,2007_051d,23-Jul-2020 01:09:50,22-Jul-2020 17:09:50,33.24548,-121.44236,083.3 070.0,083.3,070.0,35.000,35.252,,15.5005,,15.5259,,15.5132,33.0613,,33.0615,33.0629,,33.0645,33.0630,5.8084,,6.0515,6.0354,4.3836,,6.5238,4.9372,5.4863,253.235,263.8639,262.8268,191.115,453.8319,214.6100,238.7184,0.0953,,0.6960,0.2872,-99.0,,-99.0,-99.0,24.3694,,24.3650,,0.7528,82.8438,,8.136,,8.2701E+02,,2.5457E+00,,15.4951,15.5205,0.1306,,101.835,76.894,,,,,,,,,,,,
CalCOFI,2007SR,051,53,2007_051d,23-Jul-2020 01:09:51,22-Jul-2020 17:09:51,33.24548,-121.44236,083.3 070.0,083.3,070.0,36.000,36.260,,15.3512,,15.3649,,15.3581,33.0660,,33.0662,33.0678,,33.0694,33.0678,5.8265,,6.0704,6.0544,4.4014,,6.5663,4.9768,5.5156,254.010,264.6729,263.6391,191.885,455.7274,216.3933,240.0162,0.1016,,0.7702,0.3095,-99.0,,-99.0,-99.0,24.4060,,24.4043,,0.7526,82.8498,,8.137,,8.4051E+02,,2.4321E+00,,15.3457,15.3594,0.1342,,101.852,76.963,,,,,,,,,,,,
CalCOFI,2007SR,051,53,2007_051d,23-Jul-2020 01:09:53,22-Jul-2020 17:09:53,33.24548,-121.44236,083.3 070.0,083.3,070.0,37.000,37.267,,15.3125,,15.3118,,15.3122,33.0664,,33.0666,33.0685,,33.0701,33.0684,5.8404,,6.0849,6.0690,4.4090,,6.5844,4.9937,5.5314,254.618,265.3076,264.2762,192.211,457.2145,217.1484,240.7123,0.1030,,0.7867,0.3144,-99.0,,-99.0,-99.0,24.4148,,24.4166,,0.7541,82.8185,,8.137,,8.5212E+02,,2.2925E+00,,15.3069,15.3062,0.1377,,102.019,77.014,,,,,,,,,,,,
CalCOFI,2007SR,051,53,2007_051d,23-Jul-2020 01:09:54,22-Jul-2020 17:09:54,33.24548,-121.44236,083.3 070.0,083.3,070.0,38.000,38.274,,15.3026,,15.3027,,15.3027,33.0668,,33.0670,33.0692,,33.0708,33.0689,5.8293,,6.0733,6.0573,4.4143,,6.5971,5.0055,5.5314,254.133,264.8013,263.7680,192.443,456.0282,217.6857,240.7269,0.1033,,0.7902,0.3154,-99.0,,-99.0,-99.0,24.4173,,24.4191,,0.7504,82.8947,,8.137,,8.4043E+02,,2.1834E+00,,15.2969,15.2970,0.1413,,101.805,77.094,,,,,,,,,,,,
CalCOFI,2007SR,051,53,2007_051d,23-Jul-2020 01:09:58,22-Jul-2020 17:09:58,33.24548,-121.44236,083.3 070.0,083.3,070.0,39.000,39.281,,15.2936,,15.2797,,15.2867,33.0667,,33.0669,33.0692,,33.0708,33.0689,5.8127,,6.0560,6.0399,4.4263,,6.6257,5.0322,5.5361,253.407,264.0435,263.0071,192.967,454.2525,218.8994,240.9533,0.1001,,0.7525,0.3042,-99.0,,-99.0,-99.0,24.4192,,24.4241,,0.7446,83.0160,,8.136,,8.4809E+02,,2.0918E+00,,15.2877,15.2738,0.1448,,101.496,77.269,,,,,,,,,,,,
CalCOFI,2007SR,051,53,2007_051d,23-Jul-2020 01:10:00,22-Jul-2020 17:10:00,33.24548,-121.44236,083.3 070.0,083.3,070.0,40.000,40.289,,15.1898,,15.1961,,15.1930,33.0659,,33.0661,33.0675,,33.0691,33.0676,5.8198,,6.0634,6.0474,4.4439,,6.6677,5.0714,5.5594,253.713,264.3629,263.3278,193.729,455.0010,220.6642,241.9960,0.0995,,0.7455,0.3021,-99.0,,-99.0,-99.0,24.4413,,24.4411,,0.7421,83.0663,,8.135,,8.6471E+02,,1.9696E+00,,15.1838,15.1901,0.1483,,101.411,77.445,,,,,,,,,,,,
CalCOFI,2007SR,051,53,2007_051d,23-Jul-2020 01:10:01,22-Jul-2020 17:10:01,33.24548,-121.44235,083.3 070.0,083.3,070.0,41.000,41.296,,15.1003,,15.0980,,15.0992,33.0747,,33.0749,33.0768,,33.0784,33.0767,5.8479,,6.0928,6.0768,4.4588,,6.7033,5.1046,5.5907,254.930,265.6333,264.6032,194.371,457.9776,222.1512,243.3772,0.1150,,0.9281,0.3550,-99.0,,-99.0,-99.0,24.4676,,24.4697,,0.7406,83.0991,,8.133,,8.5974E+02,,1.8790E+00,,15.0941,15.0918,0.1518,,101.724,77.557,41,14.087,,,269.50,0.377,0.141,0.09,0.00,0.10,0.34,0.90
CalCOFI,2007SR,051,53,2007_051d,23-Jul-2020 01:10:02,22-Jul-2020 17:10:02,33.24548,-121.44234,083.3 070.0,083.3,070.0,42.000,42.303,,14.9178,,14.9091,,14.9135,33.0697,,33.0699,33.0706,,33.0722,33.0711,5.8824,,6.1288,6.1131,4.4770,,6.7467,5.1451,5.6291,256.426,267.1950,266.1711,195.160,461.6366,223.9786,245.0749,0.1307,,1.1132,0.4048,-99.0,,-99.0,-99.0,24.5032,,24.5058,,0.7469,82.9680,,8.134,,8.5555E+02,,1.7828E+00,,14.9116,14.9029,0.1553,,101.949,77.579,,,,,,,,,,,,
CalCOFI,2007SR,051,53,2007_051d,23-Jul-2020 01:10:05,22-Jul-2020 17:10:05,33.24548,-121.44234,083.3 070.0,083.3,070.0,43.000,43.311,,14.7838,,14.7877,,14.7858,33.0639,,33.0641,33.0592,,33.0608,33.0625,5.8486,,6.0935,6.0776,4.4968,,6.7940,5.1891,5.6334,254.945,265.6490,264.6189,196.022,458.0143,225.9750,245.2970,0.1239,,1.0330,0.3837,-99.0,,-99.0,-99.0,24.5275,,24.5231,,0.7449,83.0082,,8.135,,8.5812E+02,,1.6772E+00,,14.7774,14.7813,0.1588,,101.088,77.728,,,,,,,,,,,,
CalCOFI,2007SR,051,53,2007_051d,23-Jul-2020 01:10:08,22-Jul-2020 17:10:08,33.24548,-121.44234,083.3 070.0,083.3,070.0,44.000,44.318,,14.4935,,14.5330,,14.5133,32.9995,,32.9997,33.0113,,33.0129,33.0063,5.9125,,6.1603,6.1446,4.5311,,6.8759,5.2655,5.7051,257.727,268.5531,267.5345,197.513,464.8186,229.4283,248.4814,0.1225,,1.0165,0.3792,-99.0,,-99.0,-99.0,24.5395,,24.5402,,0.7357,83.2012,,8.135,,8.6418E+02,,1.5848E+00,,14.4871,14.5266,0.1622,,101.558,77.897,,,,,,,,,,,,
CalCOFI,2007SR,051,53,2007_051d,23-Jul-2020 01:10:09,22-Jul-2020 17:10:09,33.24548,-121.44236,083.3 070.0,083.3,070.0,45.000,45.325,,14.2419,,14.2534,,14.2477,32.9837,,32.9839,32.9897,,32.9913,32.9876,5.9022,,6.1495,6.1338,4.5595,,6.9437,5.3287,5.7313,257.266,268.0719,267.0514,198.743,463.6911,232.2771,249.6643,0.1318,,1.1262,0.4082,-99.0,,-99.0,-99.0,24.5804,,24.5826,,0.7307,83.3034,,8.132,,8.7217E+02,,1.4902E+00,,14.2355,14.2469,0.1656,,100.857,77.935,,,,,,,,,,,,
CalCOFI,2007SR,051,53,2007_051d,23-Jul-2020 01:10:11,22-Jul-2020 17:10:11,33.24548,-121.44236,083.3 070.0,083.3,070.0,46.000,46.333,,14.3371,,14.3376,,14.3374,33.0362,,33.0364,33.0390,,33.0406,33.0385,5.9126,,6.1604,6.1447,4.5498,,6.9205,5.3071,5.7259,257.717,268.5427,267.5240,198.316,464.7942,231.2881,249.4061,0.1453,,1.2855,0.4479,-99.0,,-99.0,-99.0,24.6010,,24.6030,,0.7347,83.2209,,8.129,,8.6877E+02,,1.4158E+00,,14.3304,14.3310,0.1690,,101.263,77.925,,,,,,,,,,,,
CalCOFI,2007SR,051,53,2007_051d,23-Jul-2020 01:10:12,22-Jul-2020 17:10:12,33.24548,-121.44234,083.3 070.0,083.3,070.0,47.000,47.340,,14.2384,,14.2425,,14.2405,33.0155,,33.0157,33.0209,,33.0225,33.0191,5.9174,,6.1654,6.1498,4.5602,,6.9454,5.3302,5.7400,257.924,268.7588,267.7410,198.768,465.3005,232.3350,250.0380,0.1381,,1.2005,0.4271,-99.0,,-99.0,-99.0,24.6057,,24.6090,,0.7365,83.1828,,8.128,,8.5301E+02,,1.3581E+00,,14.2316,14.2357,0.1723,,101.130,77.945,,,,,,,,,,,,
CalCOFI,2007SR,051,53,2007_051d,23-Jul-2020 01:10:15,22-Jul-2020 17:10:15,33.24548,-121.44234,083.3 070.0,083.3,070.0,48.000,48.348,,14.2085,,14.2036,,14.2061,33.0075,,33.0077,33.0086,,33.0102,33.0090,5.9008,,6.1480,6.1324,4.5697,,6.9680,5.3514,5.7419,257.201,268.0040,266.9832,199.180,463.5321,233.2892,250.1362,0.1405,,1.2289,0.4341,-99.0,,-99.0,-99.0,24.6058,,24.6076,,0.7256,83.4090,,8.127,,8.6001E+02,,1.2705E+00,,14.2016,14.1967,0.1757,,100.780,78.039,,,,,,,,,,,,
CalCOFI,2007SR,051,53,2007_051d,23-Jul-2020 01:10:18,22-Jul-2020 17:10:18,33.24548,-121.44236,083.3 070.0,083.3,070.0,49.000,49.355,,14.0938,,14.0994,,14.0966,33.0094,,33.0096,33.0110,,33.0126,33.0111,5.9075,,6.1550,6.1394,4.5822,,6.9979,5.3792,5.7593,257.485,268.3005,267.2809,199.721,464.2268,234.5423,250.9116,0.1445,,1.2761,0.4457,-99.0,,-99.0,-99.0,24.6311,,24.6312,,0.7261,83.3994,,8.123,,8.7258E+02,,1.1727E+00,,14.0868,14.0924,0.1791,,100.661,78.089,,,,,,,,,,,,
CalCOFI,2007SR,051,53,2007_051d,23-Jul-2020 01:10:19,22-Jul-2020 17:10:19,33.24548,-121.44234,083.3 070.0,083.3,070.0,50.000,50.362,,14.0497,,14.0502,,14.0500,33.0049,,33.0051,33.0071,,33.0087,33.0069,5.9157,,6.1636,6.1480,4.5854,,7.0055,5.3863,5.7672,257.841,268.6721,267.6540,199.860,465.0975,234.8642,251.2591,0.1489,,1.3280,0.4581,-99.0,,-99.0,-99.0,24.6369,,24.6385,,0.7235,83.4544,,8.123,,8.5494E+02,,1.0982E+00,,14.0426,14.0431,0.1824,,100.708,78.064,50,13.923,33.0114,,267.09,0.447,0.193,0.85,0.00,0.21,0.43,1.27